| time (UTC) | temp F | wind direction | speed knots | gust knots | rain 1hr in | rain 24hr in | rain mn in | humidity % | barometer mb |
| 20260506161149 | 69 | 249 | 0.0 | 6.1 | 0.00 | 1.05 | 0.06 | 62 | 1009.0 |
| 20260506160646 | 69 | 158 | 0.9 | 6.1 | 0.00 | 1.24 | 0.06 | 61 | 1009.2 |
| 20260506160145 | 69 | 254 | 0.9 | 2.6 | 0.00 | 1.46 | 0.06 | 61 | 1009.3 |
| 20260506155645 | 69 | 238 | 0.0 | 1.7 | 0.00 | 1.59 | 0.06 | 62 | 1009.1 |
| 20260506155145 | 69 | 252 | 0.0 | 2.6 | 0.00 | 1.65 | 0.06 | 63 | 1009.2 |
| 20260506154644 | 69 | 203 | 1.7 | 3.5 | 0.00 | 1.81 | 0.06 | 62 | 1009.1 |
| 20260506154145 | 69 | 212 | 1.7 | 3.5 | 0.00 | 2.02 | 0.06 | 61 | 1009.1 |
| 20260506153644 | 69 | 258 | 0.9 | 2.6 | 0.00 | 2.13 | 0.06 | 61 | 1009.1 |
| 20260506153143 | 70 | 259 | 0.0 | 2.6 | 0.00 | 2.21 | 0.06 | 61 | 1009.1 |
| 20260506152644 | 69 | 255 | 0.0 | 5.2 | 0.00 | 2.40 | 0.06 | 63 | 1009.1 |
| 20260506152143 | 69 | 231 | 0.9 | 5.2 | 0.00 | 2.49 | 0.06 | 61 | 1009.2 |
| 20260506151642 | 70 | 215 | 1.7 | 3.5 | 0.00 | 2.49 | 0.06 | 60 | 1009.3 |
| 20260506151145 | 70 | 63 | 0.9 | 2.6 | 0.00 | 2.50 | 0.06 | 61 | 1009.4 |
| 20260506150643 | 69 | 234 | 0.9 | 2.6 | 0.00 | 2.50 | 0.06 | 60 | 1009.3 |
| 20260506150144 | 70 | 209 | 0.9 | 2.6 | 0.00 | 2.50 | 0.06 | 60 | 1009.4 |
| 20260506145644 | 70 | 136 | 0.0 | 2.6 | 0.00 | 2.50 | 0.06 | 60 | 1009.2 |
| 20260506145143 | 70 | 244 | 0.0 | 3.5 | 0.00 | 2.50 | 0.06 | 59 | 1009.4 |
| 20260506144643 | 70 | 239 | 0.0 | 3.5 | 0.00 | 2.50 | 0.06 | 59 | 1009.5 |
| 20260506144144 | 70 | 215 | 0.0 | 2.6 | 0.00 | 2.50 | 0.06 | 60 | 1009.4 |
| 20260506143642 | 70 | 239 | 1.7 | 1.7 | 0.00 | 2.50 | 0.06 | 60 | 1009.3 |
| 20260506143142 | 70 | 247 | 0.9 | 1.7 | 0.00 | 2.51 | 0.06 | 59 | 1009.3 |
| 20260506142647 | 70 | 232 | 0.9 | 2.6 | 0.00 | 2.51 | 0.06 | 61 | 1009.4 |
| 20260506142132 | 70 | 149 | 0.9 | 3.5 | 0.00 | 2.52 | 0.06 | 62 | 1009.6 |
| 20260506141132 | 71 | 210 | 0.9 | 1.7 | 0.00 | 2.52 | 0.06 | 60 | 1009.5 |
| 20260506140621 | 70 | 229 | 0.0 | 3.5 | 0.00 | 2.52 | 0.06 | 59 | 1009.3 |
| 20260506140119 | 70 | 247 | 0.0 | 3.5 | 0.00 | 2.52 | 0.06 | 60 | 1009.5 |
| 20260506135619 | 70 | 146 | 2.6 | 3.5 | 0.00 | 2.52 | 0.06 | 59 | 1009.3 |
| 20260506135106 | 70 | 243 | 0.9 | 3.5 | 0.00 | 2.52 | 0.06 | 60 | 1009.4 |
| 20260506134607 | 70 | 216 | 1.7 | 5.2 | 0.00 | 2.52 | 0.06 | 59 | 1009.4 |
| 20260506134111 | 70 | 178 | 0.9 | 5.2 | 0.00 | 2.52 | 0.06 | 60 | 1009.5 |
| 20260506133556 | 69 | 208 | 0.9 | 6.1 | 0.00 | 2.52 | 0.06 | 59 | 1009.6 |
| 20260506132055 | 72 | 151 | 0.9 | 5.2 | 0.00 | 2.52 | 0.06 | 57 | 1009.6 |
| 20260506131055 | 71 | 267 | 2.6 | 2.6 | 0.00 | 2.52 | 0.06 | 60 | 1009.8 |
| 20260506130556 | 71 | 222 | 0.0 | 2.6 | 0.00 | 2.52 | 0.06 | 59 | 1010.0 |
| 20260506130055 | 70 | 230 | 1.7 | 3.5 | 0.00 | 2.52 | 0.06 | 59 | 1010.0 |
| 20260506125055 | 69 | 232 | 1.7 | 3.5 | 0.00 | 2.52 | 0.06 | 61 | 1010.3 |
| 20260506124555 | 69 | 224 | 0.9 | 3.5 | 0.00 | 2.52 | 0.06 | 63 | 1010.4 |
| 20260506124054 | 71 | 249 | 1.7 | 3.5 | 0.00 | 2.52 | 0.06 | 63 | 1010.2 |
| 20260506123555 | 69 | 263 | 1.7 | 3.5 | 0.00 | 2.52 | 0.06 | 63 | 1010.3 |
| 20260506122054 | 69 | 259 | 1.7 | 3.5 | 0.00 | 2.52 | 0.06 | 63 | 1010.5 |
| 20260506121554 | 70 | 208 | 1.7 | 3.5 | 0.00 | 2.52 | 0.06 | 63 | 1010.3 |
| 20260506121054 | 69 | 258 | 0.0 | 2.6 | 0.00 | 2.52 | 0.06 | 66 | 1010.1 |
| 20260506120054 | 68 | 193 | 0.9 | 3.5 | 0.00 | 2.52 | 0.06 | 67 | 1010.3 |
| 20260506115554 | 68 | 102 | 1.7 | 3.5 | 0.00 | 2.52 | 0.06 | 67 | 1010.4 |
| 20260506114554 | 68 | 192 | 1.7 | 5.2 | 0.00 | 2.52 | 0.06 | 67 | 1010.3 |
| 20260506114056 | 68 | 226 | 2.6 | 5.2 | 0.00 | 2.52 | 0.06 | 65 | 1010.2 |
| 20260506113554 | 68 | 49 | 0.9 | 5.2 | 0.00 | 2.52 | 0.06 | 67 | 1010.4 |
| 20260506113055 | 68 | 205 | 1.7 | 5.2 | 0.00 | 2.52 | 0.06 | 65 | 1010.3 |
| 20260506112555 | 69 | 200 | 0.9 | 5.2 | 0.00 | 2.52 | 0.06 | 65 | 1010.3 |
| 20260506112058 | 69 | 193 | 0.0 | 3.5 | 0.00 | 2.52 | 0.06 | 65 | 1010.2 |
| 20260506111554 | 69 | 145 | 1.7 | 3.5 | 0.00 | 2.52 | 0.06 | 66 | 1010.2 |
| 20260506111055 | 69 | 222 | 0.0 | 2.6 | 0.00 | 2.52 | 0.06 | 66 | 1010.4 |
| 20260506110553 | 69 | 168 | 0.9 | 2.6 | 0.00 | 2.52 | 0.06 | 64 | 1010.4 |
| 20260506110055 | 69 | 151 | 0.0 | 2.6 | 0.00 | 2.52 | 0.06 | 68 | 1010.4 |
| 20260506105055 | 69 | 230 | 0.0 | 2.6 | 0.00 | 2.52 | 0.06 | 68 | 1010.8 |
| 20260506104055 | 69 | 197 | 0.0 | 1.7 | 0.00 | 2.52 | 0.06 | 68 | 1010.7 |
| 20260506103055 | 68 | 201 | 0.9 | 3.5 | 0.00 | 2.52 | 0.06 | 68 | 1010.9 |
| 20260506102057 | 68 | 129 | 0.0 | 6.1 | 0.00 | 2.52 | 0.06 | 73 | 1010.8 |
| 20260506101554 | 68 | 138 | 3.5 | 5.2 | 0.00 | 2.52 | 0.06 | 70 | 1010.9 |
| 20260506101100 | 68 | 234 | 0.0 | 1.7 | 0.00 | 2.52 | 0.06 | 68 | 1010.8 |
| 20260506100555 | 67 | 236 | 0.0 | 1.7 | 0.00 | 2.52 | 0.06 | 67 | 1010.9 |
| 20260506100056 | 66 | 145 | 0.0 | 1.7 | 0.00 | 2.52 | 0.06 | 74 | 1010.8 |
| 20260506095556 | 65 | 203 | 0.0 | 3.5 | 0.00 | 2.52 | 0.06 | 75 | 1011.1 |
| 20260506095056 | 64 | 155 | 0.0 | 3.5 | 0.00 | 2.52 | 0.06 | 76 | 1010.9 |
| 20260506094555 | 63 | 120 | 0.9 | 2.6 | 0.00 | 2.52 | 0.06 | 75 | 1010.8 |
| 20260506094057 | 63 | 175 | 0.0 | 2.6 | 0.00 | 2.52 | 0.06 | 75 | 1011.1 |
| 20260506093057 | 62 | 231 | 0.9 | 2.6 | 0.00 | 2.52 | 0.06 | 77 | 1010.9 |
| 20260506092554 | 62 | 239 | 0.0 | 0.9 | 0.00 | 2.52 | 0.06 | 82 | 1011.0 |
| 20260506091555 | 62 | 238 | 0.0 | 2.6 | 0.00 | 2.52 | 0.06 | 83 | 1011.0 |
| 20260506090555 | 62 | 213 | 0.0 | 7.0 | 0.00 | 2.52 | 0.06 | 81 | 1010.8 |
| 20260506090057 | 62 | 136 | 0.0 | 7.0 | 0.00 | 2.52 | 0.06 | 83 | 1010.8 |
| 20260506085555 | 62 | 247 | 0.9 | 5.2 | 0.00 | 2.52 | 0.06 | 82 | 1010.4 |
| 20260506085058 | 61 | 233 | 0.9 | 3.5 | 0.00 | 2.52 | 0.06 | 84 | 1010.8 |
| 20260506084555 | 60 | 132 | 0.9 | 3.5 | 0.00 | 2.52 | 0.06 | 85 | 1011.0 |
| 20260506084057 | 60 | 129 | 1.7 | 5.2 | 0.00 | 2.52 | 0.06 | 85 | 1010.6 |
| 20260506083555 | 60 | 140 | 1.7 | 5.2 | 0.00 | 2.52 | 0.06 | 86 | 1010.6 |
| 20260506083057 | 60 | 103 | 1.7 | 2.6 | 0.00 | 2.52 | 0.06 | 85 | 1010.8 |
| 20260506082055 | 59 | 168 | 0.0 | 5.2 | 0.00 | 2.52 | 0.06 | 86 | 1010.6 |
| 20260506081554 | 59 | 172 | 1.7 | 3.5 | 0.00 | 2.52 | 0.06 | 86 | 1010.8 |
| 20260506081056 | 59 | 176 | 0.0 | 3.5 | 0.00 | 2.52 | 0.06 | 87 | 1010.7 |
| 20260506073055 | 59 | 289 | 0.9 | 2.6 | 0.00 | 2.52 | 0.06 | 85 | 1010.3 |
| 20260506072554 | 59 | 158 | 0.9 | 3.5 | 0.00 | 2.52 | 0.06 | 85 | 1010.6 |
| 20260506072056 | 59 | 299 | 0.9 | 3.5 | 0.00 | 2.52 | 0.06 | 86 | 1010.5 |
| 20260506071056 | 59 | 289 | 3.5 | 3.5 | 0.00 | 2.52 | 0.06 | 85 | 1010.3 |
| 20260506070554 | 59 | 252 | 0.9 | 3.5 | 0.00 | 2.52 | 0.06 | 85 | 1010.2 |
| 20260506062056 | 58 | 175 | 0.0 | 6.1 | 0.03 | 2.53 | 0.06 | 87 | 1010.4 |
| 20260506061553 | 58 | 247 | 0.9 | 6.1 | 0.03 | 2.53 | 0.06 | 87 | 1010.6 |
| 20260506061056 | 58 | 231 | 0.0 | 2.6 | 0.03 | 2.53 | 0.06 | 88 | 1010.4 |
| 20260506060557 | 58 | 258 | 0.9 | 5.2 | 0.03 | 2.53 | 0.06 | 88 | 1010.3 |
| 20260506050553 | 58 | 352 | 0.0 | 3.5 | 0.00 | 2.56 | 0.03 | 85 | 1010.2 |
| 20260506045045 | 58 | 228 | 0.9 | 3.5 | 0.00 | 2.57 | 0.03 | 84 | 1010.5 |
| 20260506044044 | 58 | 23 | 0.0 | 3.5 | 0.00 | 2.57 | 0.03 | 85 | 1010.2 |
| 20260506043543 | 58 | 286 | 0.0 | 3.5 | 0.00 | 2.57 | 0.03 | 85 | 1010.3 |
| 20260506042031 | 58 | 295 | 0.0 | 3.5 | 0.00 | 2.59 | 0.03 | 86 | 1010.3 |
| 20260506041530 | 58 | 186 | 0.0 | 5.2 | 0.00 | 2.60 | 0.03 | 85 | 1010.3 |
| 20260506041032 | 58 | 69 | 1.7 | 5.2 | 0.00 | 2.62 | 0.03 | 87 | 1010.3 |
| 20260506040518 | 58 | 105 | 1.7 | 3.5 | 0.00 | 2.62 | 0.03 | 87 | 1010.3 |
| 20260506040018 | 58 | 250 | 0.0 | 0.9 | 0.00 | 2.63 | 0.03 | 88 | 1010.5 |
| 20260506035517 | 58 | 266 | 0.9 | 1.7 | 0.00 | 2.63 | 0.03 | 87 | 1010.6 |
| 20260506034953 | 58 | 274 | 1.7 | 1.7 | 0.00 | 2.63 | 0.03 | 86 | 1010.6 |
| 20260506034456 | 58 | 271 | 0.9 | 1.7 | 0.00 | 2.63 | 0.03 | 86 | 1010.5 |
| 20260506033956 | 59 | 151 | 0.0 | 1.7 | 0.00 | 2.63 | 0.03 | 86 | 1010.6 |
| 20260506033455 | 59 | 152 | 0.9 | 1.7 | 0.00 | 2.63 | 0.03 | 86 | 1010.5 |
| 20260506032956 | 59 | 137 | 0.0 | 3.5 | 0.00 | 2.64 | 0.03 | 86 | 1010.4 |
| 20260506032443 | 59 | 159 | 0.0 | 3.5 | 0.00 | 2.64 | 0.03 | 86 | 1010.5 |
| 20260506031944 | 59 | 245 | 0.0 | 1.7 | 0.00 | 2.64 | 0.03 | 87 | 1010.6 |
| 20260506031442 | 59 | 233 | 0.0 | 1.7 | 0.00 | 2.64 | 0.03 | 87 | 1010.7 |
| 20260506030917 | 59 | 242 | 0.0 | 1.7 | 0.00 | 2.64 | 0.03 | 86 | 1010.7 |
| 20260506025919 | 59 | 113 | 0.9 | 5.2 | 0.00 | 2.64 | 0.03 | 87 | 1010.6 |
| 20260506025406 | 59 | 157 | 1.7 | 5.2 | 0.00 | 2.64 | 0.03 | 89 | 1010.5 |
| 20260506024907 | 59 | 100 | 0.9 | 5.2 | 0.01 | 2.64 | 0.03 | 90 | 1010.5 |
| 20260506024406 | 59 | 102 | 1.7 | 5.2 | 0.01 | 2.65 | 0.03 | 90 | 1010.5 |
| 20260506023854 | 59 | 312 | 0.9 | 5.2 | 0.01 | 2.66 | 0.03 | 90 | 1010.6 |
| 20260506023355 | 59 | 65 | 0.9 | 5.2 | 0.01 | 2.67 | 0.03 | 89 | 1010.7 |
| 20260506022855 | 59 | 211 | 0.0 | 3.5 | 0.01 | 2.67 | 0.03 | 90 | 1010.8 |
| 20260506022354 | 59 | 129 | 0.0 | 3.5 | 0.01 | 2.69 | 0.03 | 89 | 1010.6 |
| 20260506021356 | 59 | 222 | 0.0 | 1.7 | 0.01 | 2.70 | 0.03 | 90 | 1010.5 |
| 20260506020857 | 59 | 192 | 0.9 | 1.7 | 0.01 | 2.71 | 0.03 | 90 | 1010.5 |
| 20260506020356 | 59 | 247 | 0.0 | 1.7 | 0.01 | 2.72 | 0.03 | 91 | 1010.8 |
| 20260506015856 | 59 | 277 | 0.0 | 6.1 | 0.01 | 2.73 | 0.03 | 90 | 1010.8 |
| 20260506015357 | 59 | 348 | 3.5 | 6.1 | 0.01 | 2.73 | 0.03 | 90 | 1010.6 |
| 20260506014855 | 59 | 123 | 0.9 | 2.6 | 0.00 | 2.72 | 0.02 | 90 | 1010.6 |
| 20260506014344 | 59 | 118 | 0.9 | 2.6 | 0.00 | 2.73 | 0.02 | 90 | 1010.2 |
| 20260506013842 | 59 | 179 | 0.0 | 1.7 | 0.00 | 2.73 | 0.02 | 90 | 1010.4 |
| 20260506012842 | 59 | 30 | 0.9 | 3.5 | 0.00 | 2.74 | 0.02 | 90 | 1010.7 |
| 20260506012343 | 59 | 314 | 0.9 | 5.2 | 0.00 | 2.75 | 0.02 | 91 | 1010.7 |
| 20260506010841 | 59 | 87 | 0.0 | 2.6 | 0.00 | 2.77 | 0.02 | 91 | 1011.0 |
| 20260506010346 | 59 | 278 | 0.0 | 1.7 | 0.00 | 2.77 | 0.02 | 91 | 1011.2 |
| 20260506005344 | 59 | 32 | 0.0 | 1.7 | 0.00 | 2.78 | 0.02 | 91 | 1011.2 |
| 20260506004843 | 59 | 87 | 0.0 | 2.6 | 0.00 | 2.78 | 0.02 | 91 | 1011.2 |
| 20260506004342 | 59 | 251 | 0.0 | 2.6 | 0.00 | 2.78 | 0.02 | 91 | 1011.1 |
| 20260506003843 | 59 | 116 | 0.0 | 2.6 | 0.00 | 2.78 | 0.02 | 91 | 1011.2 |
| 20260506003344 | 59 | 176 | 0.9 | 3.5 | 0.00 | 2.78 | 0.02 | 92 | 1011.2 |
| 20260506002843 | 59 | 115 | 0.0 | 3.5 | 0.00 | 2.78 | 0.02 | 91 | 1011.1 |
| 20260506002343 | 59 | 255 | 0.0 | 2.6 | 0.00 | 2.78 | 0.02 | 92 | 1011.3 |
| 20260506001845 | 59 | 143 | 0.0 | 2.6 | 0.00 | 2.78 | 0.02 | 92 | 1011.1 |
| 20260506000843 | 59 | 125 | 0.0 | 2.6 | 0.00 | 2.78 | 0.02 | 93 | 1011.2 |
| 20260506000347 | 59 | 88 | 0.0 | 1.7 | 0.00 | 2.78 | 0.02 | 93 | 1011.4 |
| 20260505235844 | 59 | 259 | 0.9 | 1.7 | 0.00 | 2.78 | 0.02 | 93 | 1011.6 |
| 20260505235343 | 59 | 141 | 0.0 | 1.7 | 0.00 | 2.78 | 0.02 | 93 | 1011.6 |
| 20260505234846 | 59 | 298 | 0.0 | 3.5 | 0.00 | 2.78 | 0.02 | 93 | 1011.6 |
| 20260505234342 | 59 | 170 | 0.9 | 3.5 | 0.00 | 2.78 | 0.02 | 93 | 1011.8 |
| 20260505233844 | 59 | 109 | 0.0 | 3.5 | 0.00 | 2.78 | 0.02 | 94 | 1011.8 |
| 20260505233347 | 59 | 286 | 0.0 | 2.6 | 0.00 | 2.78 | 0.02 | 94 | 1011.8 |
| 20260505232843 | 59 | 309 | 0.9 | 2.6 | 0.01 | 2.78 | 0.02 | 94 | 1011.9 |
| 20260505232343 | 59 | 255 | 0.0 | 0.0 | 0.01 | 2.78 | 0.02 | 94 | 1012.0 |
| 20260505231845 | 59 | 255 | 0.0 | 0.9 | 0.01 | 2.78 | 0.02 | 94 | 1012.3 |
| 20260505231343 | 59 | 255 | 0.0 | 1.7 | 0.02 | 2.78 | 0.02 | 94 | 1012.3 |
| 20260505230843 | 59 | 204 | 0.0 | 1.7 | 0.02 | 2.78 | 0.02 | 94 | 1012.1 |
| 20260505230347 | 59 | 345 | 0.0 | 0.9 | 0.02 | 2.78 | 0.02 | 94 | 1012.2 |
| 20260505225843 | 59 | 349 | 0.0 | 1.7 | 0.03 | 2.78 | 0.02 | 94 | 1012.0 |
| 20260505225343 | 59 | 17 | 0.0 | 1.7 | 0.03 | 2.78 | 0.02 | 94 | 1012.2 |
| 20260505224846 | 59 | 110 | 1.7 | 3.5 | 0.03 | 2.78 | 0.02 | 93 | 1012.0 |
| 20260505224342 | 59 | 142 | 0.0 | 3.5 | 0.03 | 2.78 | 0.02 | 93 | 1012.1 |
| 20260505223842 | 59 | 152 | 1.7 | 2.6 | 0.03 | 2.78 | 0.02 | 94 | 1012.4 |
| 20260505222820 | 59 | 277 | 0.0 | 0.9 | 0.02 | 2.77 | 0.02 | 94 | 1012.2 |
| 20260505222318 | 58 | 109 | 0.0 | 0.9 | 0.02 | 2.77 | 0.01 | 95 | 1012.5 |
| 20260505221808 | 58 | 251 | 0.0 | 1.7 | 0.02 | 2.77 | 0.01 | 95 | 1012.4 |
| 20260505221307 | 58 | 340 | 0.0 | 1.7 | 0.01 | 2.76 | 0.00 | 95 | 1012.4 |
| 20260505220807 | 57 | 284 | 0.0 | 0.9 | 0.01 | 2.76 | 0.00 | 94 | 1012.4 |
| 20260505220256 | 57 | 151 | 0.0 | 0.0 | 0.01 | 2.76 | 0.00 | 94 | 1012.5 |
| 20260505215755 | 57 | 151 | 0.0 | 0.0 | 0.00 | 2.75 | 2.75 | 94 | 1012.6 |
| 20260505215256 | 57 | 151 | 0.0 | 0.9 | 0.00 | 2.75 | 2.75 | 94 | 1012.7 |
| 20260505214756 | 57 | 150 | 0.0 | 0.9 | 0.00 | 2.75 | 2.75 | 94 | 1012.7 |
| 20260505214254 | 57 | 138 | 0.0 | 0.0 | 0.00 | 2.75 | 2.75 | 94 | 1013.0 |
| 20260505213757 | 57 | 138 | 0.0 | 0.0 | 0.00 | 2.75 | 2.75 | 94 | 1013.0 |
| 20260505213255 | 57 | 138 | 0.0 | 0.0 | 0.00 | 2.75 | 2.75 | 93 | 1013.1 |
| 20260505212257 | 57 | 138 | 0.0 | 0.9 | 0.00 | 2.75 | 2.75 | 93 | 1013.0 |
| 20260505211753 | 57 | 116 | 0.0 | 0.0 | 0.00 | 2.75 | 2.75 | 93 | 1013.1 |
| 20260505211254 | 57 | 116 | 0.0 | 0.0 | 0.00 | 2.75 | 2.75 | 93 | 1013.1 |
| 20260505210756 | 57 | 116 | 0.0 | 0.0 | 0.00 | 2.75 | 2.75 | 93 | 1013.3 |
| 20260505210254 | 57 | 116 | 0.0 | 0.0 | 0.00 | 2.75 | 2.75 | 93 | 1013.3 |
| 20260505205755 | 57 | 116 | 0.0 | 0.0 | 0.00 | 2.75 | 2.75 | 93 | 1013.2 |
| 20260505205308 | 57 | 116 | 0.0 | 0.0 | 0.00 | 2.75 | 2.75 | 93 | 1013.3 |
| 20260505204754 | 57 | 116 | 0.0 | 0.0 | 0.00 | 2.75 | 2.75 | 93 | 1013.3 |
| 20260505204258 | 57 | 116 | 0.0 | 1.7 | 0.00 | 2.75 | 2.75 | 92 | 1013.3 |
| 20260505203759 | 57 | 116 | 0.0 | 1.7 | 0.00 | 2.75 | 2.75 | 92 | 1013.4 |
| 20260505203257 | 57 | 178 | 0.0 | 0.9 | 0.00 | 2.75 | 2.75 | 92 | 1013.4 |
| 20260505202755 | 57 | 166 | 0.0 | 0.9 | 0.01 | 2.75 | 2.75 | 92 | 1013.3 |
| 20260505202259 | 57 | 167 | 0.0 | 0.9 | 0.02 | 2.75 | 2.75 | 92 | 1013.3 |
| 20260505201755 | 57 | 165 | 0.0 | 0.9 | 0.03 | 2.75 | 2.75 | 92 | 1013.2 |
| 20260505201256 | 57 | 163 | 0.0 | 1.7 | 0.04 | 2.75 | 2.75 | 91 | 1013.0 |
| 20260505200759 | 57 | 187 | 0.9 | 1.7 | 0.05 | 2.75 | 2.75 | 92 | 1013.0 |
| 20260505200254 | 58 | 162 | 0.0 | 1.7 | 0.06 | 2.75 | 2.75 | 92 | 1013.2 |
| 20260505195754 | 58 | 169 | 0.0 | 1.7 | 0.08 | 2.75 | 2.75 | 92 | 1013.3 |
| 20260505195256 | 57 | 207 | 0.9 | 1.7 | 0.09 | 2.75 | 2.75 | 92 | 1013.2 |
| 20260505194255 | 57 | 204 | 0.0 | 2.6 | 0.10 | 2.75 | 2.75 | 92 | 1013.3 |
| 20260505193759 | 57 | 197 | 0.9 | 2.6 | 0.12 | 2.75 | 2.75 | 92 | 1013.1 |
| 20260505193255 | 57 | 144 | 0.0 | 1.7 | 0.13 | 2.75 | 2.75 | 92 | 1013.1 |
| 20260505192747 | 57 | 164 | 0.0 | 1.7 | 0.13 | 2.74 | 2.74 | 92 | 1013.0 |
| 20260505192243 | 57 | 168 | 0.0 | 1.7 | 0.13 | 2.73 | 2.74 | 92 | 1013.2 |
| 20260505191744 | 58 | 176 | 0.0 | 1.7 | 0.14 | 2.72 | 2.73 | 92 | 1013.1 |
| 20260505191245 | 58 | 162 | 0.0 | 2.6 | 0.14 | 2.71 | 2.71 | 92 | 1013.0 |
| 20260505190744 | 58 | 137 | 0.9 | 2.6 | 0.16 | 2.70 | 2.70 | 92 | 1012.9 |
| 20260505185748 | 58 | 128 | 0.0 | 3.5 | 0.16 | 2.67 | 2.67 | 94 | 1012.8 |
| 20260505185244 | 58 | 92 | 0.9 | 2.6 | 0.15 | 2.66 | 2.66 | 94 | 1012.8 |
| 20260505184743 | 59 | 152 | 0.0 | 0.9 | 0.14 | 2.65 | 2.65 | 95 | 1013.1 |
| 20260505183241 | 59 | 132 | 0.0 | 1.7 | 0.11 | 2.62 | 2.62 | 95 | 1012.8 |
| 20260505182747 | 58 | 135 | 0.0 | 1.7 | 0.10 | 2.61 | 2.61 | 95 | 1012.6 |
| 20260505182243 | 58 | 171 | 0.0 | 1.7 | 0.09 | 2.60 | 2.60 | 95 | 1012.6 |
| 20260505181744 | 58 | 185 | 0.0 | 1.7 | 0.07 | 2.58 | 2.58 | 95 | 1012.4 |
| 20260505181245 | 59 | 133 | 0.0 | 1.7 | 0.07 | 2.57 | 2.57 | 95 | 1012.4 |
| 20260505180743 | 59 | 144 | 0.0 | 0.9 | 0.04 | 2.54 | 2.55 | 95 | 1012.3 |
| 20260505180242 | 59 | 134 | 0.0 | 0.9 | 0.05 | 2.53 | 2.53 | 95 | 1012.6 |
| 20260505175744 | 59 | 153 | 0.0 | 0.0 | 0.07 | 2.51 | 2.52 | 95 | 1012.3 |
| 20260505175241 | 59 | 153 | 0.0 | 0.0 | 0.08 | 2.51 | 2.51 | 95 | 1012.3 |
| 20260505174745 | 59 | 153 | 0.0 | 0.0 | 0.11 | 2.51 | 2.51 | 95 | 1012.3 |
| 20260505174246 | 59 | 151 | 0.0 | 0.0 | 0.17 | 2.51 | 2.51 | 94 | 1012.2 |
| 20260505173745 | 59 | 151 | 0.0 | 0.0 | 0.18 | 2.51 | 2.51 | 95 | 1012.5 |
| 20260505173243 | 59 | 151 | 0.0 | 0.0 | 0.27 | 2.51 | 2.51 | 95 | 1012.2 |
| 20260505172744 | 59 | 149 | 0.0 | 0.9 | 0.36 | 2.51 | 2.51 | 94 | 1012.4 |
| 20260505172242 | 59 | 149 | 0.0 | 0.9 | 0.42 | 2.51 | 2.51 | 94 | 1012.1 |
| 20260505171742 | 60 | 153 | 0.0 | 0.9 | 0.51 | 2.51 | 2.51 | 94 | 1012.2 |
| 20260505171229 | 60 | 154 | 0.0 | 0.9 | 0.66 | 2.50 | 2.50 | 94 | 1012.2 |
| 20260505170730 | 60 | 155 | 0.0 | 0.9 | 0.88 | 2.50 | 2.50 | 94 | 1012.3 |
| 20260505170231 | 60 | 154 | 0.0 | 0.9 | 1.08 | 2.48 | 2.49 | 94 | 1012.3 |
| 20260505165718 | 60 | 117 | 0.0 | 1.7 | 1.18 | 2.44 | 2.44 | 94 | 1012.5 |
| 20260505165220 | 60 | 117 | 0.0 | 1.7 | 1.24 | 2.43 | 2.43 | 94 | 1012.4 |
| 20260505164715 | 60 | 125 | 0.0 | 3.5 | 1.33 | 2.40 | 2.40 | 94 | 1012.5 |
| 20260505164207 | 60 | 264 | 1.7 | 3.5 | 1.51 | 2.34 | 2.34 | 94 | 1012.3 |
| 20260505163706 | 60 | 128 | 1.7 | 2.6 | 1.61 | 2.32 | 2.32 | 94 | 1012.2 |
| 20260505163205 | 60 | 322 | 0.0 | 2.6 | 1.61 | 2.22 | 2.24 | 94 | 1012.5 |
| 20260505162656 | 60 | 320 | 1.7 | 2.6 | 1.72 | 2.14 | 2.14 | 94 | 1012.3 |
| 20260505162153 | 60 | 326 | 0.9 | 1.7 | 1.74 | 2.07 | 2.08 | 94 | 1012.4 |
| 20260505161657 | 60 | 316 | 0.0 | 3.5 | 1.65 | 1.98 | 1.99 | 94 | 1012.3 |